Regional Weather Roundup
Issued by NWS Green Bay, WI

Home | Current Version | Previous Version | Text Only | Print | Product List | Glossary On
Versions: 1 2 3 4 5 6 7 8 9 10 11 12 13 14 15 16 17 18 19 20 21 22 23 24 25 26 27 28 29 30 31 32 33 34 35 36 37 38 39 40 41 42 43 44 45 46 47 48 49 50
000
ASUS43 KGRB 201310
RWRGRB

NORTH-CENTRAL AND NORTHEAST WISCONSIN REGIONAL WEATHER ROUNDUP
NATIONAL WEATHER SERVICE GREEN BAY WI
800 AM CDT SAT SEP 20 2014

WIZ005-009-010>012-018-019-201400-
NORTH CENTRAL WISCONSIN

CITY           SKY/WX    TMP DP  RH WIND       PRES   REMARKS
IRONWOOD       CLOUDY    64  63  94 W10       29.62R
MANITOWISH WTR CLOUDY    66  64  94 W8G17     29.65S
ARBOR VITAE    CLOUDY    67  63  86 W10       29.66S
EAGLE RIVER    CLOUDY    66  64  93 SW9       29.65S
LAND O LAKES   CLOUDY    67  63  87 SW7       29.65S
RHINELANDER    CLOUDY    65  63  93 SW10      29.68S
PHILLIPS       CLOUDY    66  63  91 W8        29.67S
ANTIGO         CLOUDY    63  61  93 SW14G23   29.71S
TOMAHAWK       CLOUDY    66  62  86 SW7       29.69S
MERRILL        CLOUDY    64  63  94 SW12      29.70S
$$

WIZ013-073-201400-
NORTHEAST WISCONSIN

CITY           SKY/WX    TMP DP  RH WIND       PRES   REMARKS
IRON MOUNTAIN  CLOUDY    67  62  84 W10G18    29.62F
MARINETTE      CLOUDY    64  61  88 W7        29.64F
OCONTO         CLOUDY    64  63  97 SW8       29.66S
$$

WIZ017-030-035>037-045-201400-
CENTRAL WISCONSIN

CITY           SKY/WX    TMP DP  RH WIND       PRES   REMARKS
MEDFORD        CLOUDY    63  61  95 SW10G17   29.71S
WAUSAU         PTSUNNY   64  61  90 SW12      29.70S
MOSINEE        SUNNY     63  63 100 SW10G16   29.72F
MARSHFIELD     MOSUNNY   64  62  93 SW10      29.72F
WISC RAPIDS    PTSUNNY   63  61  93 S7        29.74F
STEVENS POINT  CLOUDY    61  60  96 SW7       29.73F
WAUPACA        CLOUDY    64  63  95 S7        29.73S FOG
SHAWANO        CLOUDY    66  62  87 SW6       29.70S
CLINTONVILLE   CLOUDY    63  61  94 SW7       29.70F
$$

WIZ038-039-048-051-201400-
FOX VALLEY

CITY           SKY/WX    TMP DP  RH WIND       PRES   REMARKS
NWS GREEN BAY  LGT RAIN  64  62  93 SW13      29.71F
APPLETON       CLOUDY    63  61  94 SW15      29.74F FOG
OSHKOSH        CLOUDY    64  62  93 SW7       29.76S FOG
FOND DU LAC    CLOUDY    64  60  87 SW14G25   29.77R
$$

WIZ022-050-052-201400-
EAST CENTRAL WISCONSIN

CITY           SKY/WX    TMP DP  RH WIND       PRES   REMARKS
STURGEON BAY   CLOUDY    64  59  82 W16G25    29.68S
MANITOWOC      CLOUDY    65  61  87 SW9       29.74R
SHEBOYGAN      CLOUDY    64  60  87 SW12      29.76R
$$

LMZ563-521-522-541>543-201400-
LAKESHORE

STATION/POSITION TIME  TEMP    WIND        PRES    VSBY  WAVE
                       AIR SEA DIR/SP/G                  HT/PER
                 (UTC) (F)     (DEG/KT/KT) (MB)    (MI)  (FT/S)
SHEBOYGAN LKSHOR 1300   65 53  210/ 10/ 11 1007.8R
KEWAUNEE LKSHORE 1300   65     240/ 11/ 15 1004.9R
TWO RIVERS CG    1200   58                 1007.3   3 1/2  5
NORTHPORT PIER   1300   65     250/  6/ 15 1004.1F
N MID LAKE BUOY  1300   59 58  200/ 16/ 17 1004.3F         6/ 8
S GREEN BAY BUOY 1300   62     VRB 12/ 14  1005.9R
SISTER BAY LKSHO 1200          250/ 13/ 16   N/A
STURGEON BAY CG  1200   63 55  310/  7     1005.6   3 1/2  2
CHAMBERS ISLAND  1300   63     190/  5/ 14 1004.1F
MENOMINEE LKSHOR 1300   65     230/ 11/ 15 1004.6F
$$


USA.gov is the U.S. government's official web portal to all federal, state and local government web resources and services.